Snowfall_Accumulation
0.0 0.0 0.0 0.0 0.0 0.0 0.0 0.0 0.0 0.0 0.0 0.0 0.0 0.0 0.0 0.0 0.0 0.0 0.0 0.0 0.0 0.0 0.0 0.0 0.0 0.0 0.0
0.0 0.0 0.0 0.0 0.0 0.0 0.0 0.0 0.0 0.0 0.0 0.0 0.0 0.0 0.0 0.0 0.0 0.0 0.0 0.0 0.0 0.0 0.0 0.0 0.0 0.0 0.0
0.0 0.0 0.0 0.0 0.0 0.0 0.0 0.0 0.0 0.0 0.0 0.0 0.0 0.0 0.0 0.0 0.0 0.0 0.0 0.0 0.0 0.0 0.0 0.0 0.0 0.0 0.0
0.0 0.2 0.2 0.0 0.0 0.0 0.0 0.0 0.0 0.0 0.0 0.0 0.0 0.0 0.0 0.0 0.0 0.0 0.0 0.0 0.0 0.0 0.0 0.0 0.0 0.0 0.0
1.2 0.2 0.1 0.0 0.0 0.0 0.0 0.0 0.0 0.0 0.0 0.0 0.0 0.0 0.0 0.0 0.0 0.0 0.0 0.0 0.0 0.0 0.0 0.0 0.0 0.0 0.0
0.4 0.2 0.0 0.0 0.0 0.0 0.5 0.4 0.4 0.0 0.0 0.1 0.0 0.0 0.0 0.0 0.0 0.0 0.0 0.0 0.0 0.0 0.0 0.0 0.0 0.0 0.0
0.1 0.0 0.0 0.0 0.9 0.8 0.3 1.0 0.7 0.0 0.0 0.2 0.0 0.0 0.0 0.0 0.0 0.0 0.0 0.0 0.0 0.0 0.0 0.0 0.0 0.0 0.0
0.0 0.0 0.2 0.1 0.1 0.6 0.5 0.3 0.1 0.0 0.0 0.6 0.0 0.0 0.0 0.0 0.0 0.0 0.0 0.0 0.0 0.0 0.0 0.0 0.0 0.0 0.0
0.0 0.0 0.0 0.0 0.0 0.4 0.1 0.8 0.4 0.0 0.0 0.0 0.0 0.0 0.0 0.0 0.0 0.0 0.0 0.0 0.0 0.0 0.0 0.0 0.0 0.0 0.0
0.0 0.0 0.0 0.0 0.0 0.0 0.6 3.1 1.4 1.2 0.0 1.4 0.1 0.4 2.2 0.0 0.0 0.0 0.0 0.0 0.0 0.0 0.0 0.0 0.0 0.3 0.6
0.0 0.0 0.0 0.0 0.0 0.0 0.0 2.8 5.0 3.1 0.0 3.9 4.7 0.1 2.7 0.6 0.0 0.0 0.0 0.0 0.0 0.0 0.2 0.4 0.4 0.6 2.3
0.0 0.0 0.0 0.0 0.0 0.0 0.0 0.0 0.1 2.5 0.7 1.2 7.6 2.3 4.6 2.2 0.0 0.0 0.0 0.0 0.1 0.0 0.2 0.2 0.1 0.2 0.3
0.1 0.0 0.0 0.0 0.0 0.0 0.0 0.0 0.0 0.0 0.1 0.0 2.2 2.3 3.9 4.2 2.3 0.3 0.8 0.0 0.0 0.3 0.6 1.0 1.5 1.7 2.2
0.1 0.0 0.0 0.0 0.0 0.0 0.4 0.0 0.6 0.0 0.0 0.0 0.4 1.8 3.7 1.6 2.7 1.6 0.4 1.4 0.9 0.8 0.7 0.8 1.0 0.7 0.6
0.2 0.3 0.0 0.0 0.0 0.0 0.1 0.6 1.3 0.1 0.0 0.0 0.0 0.1 0.3 0.6 1.4 0.0 0.6 0.7 0.8 0.8 1.2 1.8 0.5 0.4 0.0
0.3 0.0 0.8 0.4 0.5 0.2 0.0 0.8 1.2 0.1 0.2 0.0 0.0 0.5 0.0 0.0 0.0 1.8 0.6 0.8 0.7 0.6 0.8 2.6 1.0 0.2 0.0
0.6 0.3 1.0 1.1 0.2 0.3 0.0 0.2 0.5 0.0 0.1 0.0 0.9 2.6 3.1 0.4 0.0 0.0 4.0 2.4 0.9 1.2 0.8 1.3 1.8 0.2 0.1